Time,TemperatureF,DewpointF,PressureIn,WindDirection,WindDirectionDegrees,WindSpeedMPH,WindSpeedGustMPH,Humidity,HourlyPrecipIn,Conditions,Clouds,dailyrainin,SoftwareType,DateUTC
2013-05-14 00:01:00,43.3,30.0,30.05,South,169,0.0,1.0,59,0.00,,,0.00,WUHU216DAVISVP2,2013-05-14 04:01:00,
2013-05-14 00:06:00,43.5,30.2,30.05,South,170,0.0,0.0,59,0.00,,,0.00,WUHU216DAVISVP2,2013-05-14 04:06:00,
2013-05-14 00:11:00,43.5,30.5,30.05,SSE,163,0.0,1.0,60,0.00,,,0.00,WUHU216DAVISVP2,2013-05-14 04:11:00,
2013-05-14 00:16:00,43.5,30.5,30.05,SSW,201,0.0,1.0,60,0.00,,,0.00,WUHU216DAVISVP2,2013-05-14 04:16:00,
2013-05-14 00:21:00,43.4,30.5,30.05,SSW,194,0.0,1.0,60,0.00,,,0.00,WUHU216DAVISVP2,2013-05-14 04:21:00,
2013-05-14 00:26:00,43.3,31.2,30.05,SSW,195,0.0,1.0,62,0.00,,,0.00,WUHU216DAVISVP2,2013-05-14 04:26:00,
2013-05-14 00:31:00,43.2,30.7,30.05,SSW,194,0.0,1.0,61,0.00,,,0.00,WUHU216DAVISVP2,2013-05-14 04:31:00,
2013-05-14 00:36:00,43.0,30.5,30.05,SSW,194,0.0,0.0,61,0.00,,,0.00,WUHU216DAVISVP2,2013-05-14 04:36:00,
2013-05-14 00:41:00,42.9,30.9,30.04,SSW,194,0.0,0.0,62,0.00,,,0.00,WUHU216DAVISVP2,2013-05-14 04:41:00,
2013-05-14 00:46:00,42.9,30.9,30.05,SSW,194,0.0,0.0,62,0.00,,,0.00,WUHU216DAVISVP2,2013-05-14 04:46:00,
2013-05-14 00:51:00,42.9,31.2,30.04,SSW,194,0.0,0.0,63,0.00,,,0.00,WUHU216DAVISVP2,2013-05-14 04:51:00,
2013-05-14 00:56:00,42.7,31.7,30.04,SSW,194,0.0,0.0,65,0.00,,,0.00,WUHU216DAVISVP2,2013-05-14 04:56:00,
2013-05-14 01:01:00,42.6,32.0,30.04,South,179,0.0,0.0,66,0.00,,,0.00,WUHU216DAVISVP2,2013-05-14 05:01:00,
2013-05-14 01:06:00,42.5,31.6,30.04,South,178,0.0,0.0,65,0.00,,,0.00,WUHU216DAVISVP2,2013-05-14 05:06:00,
2013-05-14 01:11:00,42.4,32.3,30.04,South,177,0.0,0.0,67,0.00,,,0.00,WUHU216DAVISVP2,2013-05-14 05:11:00,
2013-05-14 01:16:00,42.2,31.7,30.04,South,177,0.0,0.0,66,0.00,,,0.00,WUHU216DAVISVP2,2013-05-14 05:16:00,
2013-05-14 01:21:00,42.0,32.2,30.04,South,177,0.0,0.0,68,0.00,,,0.00,WUHU216DAVISVP2,2013-05-14 05:21:00,
2013-05-14 01:26:00,41.8,32.1,30.03,South,177,0.0,0.0,68,0.00,,,0.00,WUHU216DAVISVP2,2013-05-14 05:26:00,
2013-05-14 01:31:00,41.7,32.0,30.03,South,177,0.0,0.0,68,0.00,,,0.00,WUHU216DAVISVP2,2013-05-14 05:31:00,
2013-05-14 01:36:00,41.7,32.0,30.03,SSE,160,0.0,0.0,68,0.00,,,0.00,WUHU216DAVISVP2,2013-05-14 05:36:00,
2013-05-14 01:41:00,41.8,32.1,30.03,SSW,193,0.0,1.0,68,0.00,,,0.00,WUHU216DAVISVP2,2013-05-14 05:41:00,
2013-05-14 01:46:00,41.9,32.2,30.03,South,188,0.0,1.0,68,0.00,,,0.00,WUHU216DAVISVP2,2013-05-14 05:46:00,
2013-05-14 01:51:00,42.0,32.3,30.03,SSW,203,0.0,1.0,68,0.00,,,0.00,WUHU216DAVISVP2,2013-05-14 05:51:00,
2013-05-14 01:56:00,42.0,32.7,30.03,SSW,201,0.0,0.0,69,0.00,,,0.00,WUHU216DAVISVP2,2013-05-14 05:56:00,
2013-05-14 02:01:00,42.0,31.9,30.03,SSW,193,0.0,0.0,67,0.00,,,0.00,WUHU216DAVISVP2,2013-05-14 06:01:00,
2013-05-14 02:06:00,42.1,32.0,30.03,SSW,197,0.0,1.0,67,0.00,,,0.00,WUHU216DAVISVP2,2013-05-14 06:06:00,
2013-05-14 02:11:00,42.2,32.1,30.03,South,190,0.0,1.0,67,0.00,,,0.00,WUHU216DAVISVP2,2013-05-14 06:11:00,
2013-05-14 02:16:00,42.2,32.5,30.02,South,190,0.0,1.0,68,0.00,,,0.00,WUHU216DAVISVP2,2013-05-14 06:16:00,
2013-05-14 02:21:00,42.2,32.0,30.02,SSW,198,0.0,3.0,67,0.00,,,0.00,WUHU216DAVISVP2,2013-05-14 06:21:00,
2013-05-14 02:26:00,42.2,32.0,30.02,SSE,159,1.0,3.0,67,0.00,,,0.00,WUHU216DAVISVP2,2013-05-14 06:26:00,
2013-05-14 02:31:00,42.2,32.0,30.02,SSE,158,0.0,3.0,67,0.00,,,0.00,WUHU216DAVISVP2,2013-05-14 06:31:00,
2013-05-14 02:36:00,42.2,32.0,30.02,SW,219,0.0,3.0,67,0.00,,,0.00,WUHU216DAVISVP2,2013-05-14 06:36:00,
2013-05-14 02:41:00,42.2,32.1,30.02,SSE,162,1.0,5.0,67,0.00,,,0.00,WUHU216DAVISVP2,2013-05-14 06:41:00,
2013-05-14 02:46:00,42.4,32.3,30.02,South,190,1.0,5.0,67,0.00,,,0.00,WUHU216DAVISVP2,2013-05-14 06:46:00,
2013-05-14 02:52:00,42.4,32.3,30.02,South,190,1.0,5.0,67,0.00,,,0.00,WUHU216DAVISVP2,2013-05-14 06:52:00,
2013-05-14 02:57:00,42.5,32.3,30.01,SSW,212,1.0,5.0,67,0.00,,,0.00,WUHU216DAVISVP2,2013-05-14 06:57:00,
2013-05-14 03:02:00,42.7,32.1,30.01,SSW,201,0.0,6.0,66,0.00,,,0.00,WUHU216DAVISVP2,2013-05-14 07:02:00,
2013-05-14 03:06:00,42.7,32.2,30.01,South,169,2.0,6.0,66,0.00,,,0.00,WUHU216DAVISVP2,2013-05-14 07:06:00,
2013-05-14 03:12:00,42.7,31.7,30.01,SW,222,5.0,6.0,65,0.00,,,0.00,WUHU216DAVISVP2,2013-05-14 07:12:00,
2013-05-14 03:17:00,42.8,31.8,30.01,SSW,200,2.0,5.0,65,0.00,,,0.00,WUHU216DAVISVP2,2013-05-14 07:17:00,
2013-05-14 03:22:00,42.9,32.0,30.01,SE,132,2.0,5.0,65,0.00,,,0.00,WUHU216DAVISVP2,2013-05-14 07:22:00,
2013-05-14 03:27:00,43.1,31.8,30.01,SW,225,2.0,7.0,64,0.00,,,0.00,WUHU216DAVISVP2,2013-05-14 07:27:00,
2013-05-14 03:32:00,43.1,31.8,30.01,SE,133,1.0,7.0,64,0.00,,,0.00,WUHU216DAVISVP2,2013-05-14 07:32:00,
2013-05-14 03:37:00,43.1,31.7,30.01,SW,222,4.0,7.0,64,0.00,,,0.00,WUHU216DAVISVP2,2013-05-14 07:37:00,
2013-05-14 03:42:00,43.1,31.7,30.01,SSE,149,2.0,7.0,64,0.00,,,0.00,WUHU216DAVISVP2,2013-05-14 07:42:00,
2013-05-14 03:47:00,43.1,31.7,30.00,SSE,153,2.0,4.0,64,0.00,,,0.00,WUHU216DAVISVP2,2013-05-14 07:47:00,
2013-05-14 03:52:00,43.1,31.7,30.00,South,176,1.0,4.0,64,0.00,,,0.00,WUHU216DAVISVP2,2013-05-14 07:52:00,
2013-05-14 03:57:00,43.1,31.8,30.01,SSW,194,0.0,4.0,64,0.00,,,0.00,WUHU216DAVISVP2,2013-05-14 07:57:00,
2013-05-14 04:02:00,43.0,32.1,30.02,South,190,1.0,4.0,65,0.00,,,0.00,WUHU216DAVISVP2,2013-05-14 08:02:00,
2013-05-14 04:07:00,43.0,31.7,30.01,SW,231,0.0,3.0,64,0.00,,,0.00,WUHU216DAVISVP2,2013-05-14 08:07:00,
2013-05-14 04:12:00,43.0,31.6,30.02,SSW,208,0.0,3.0,64,0.00,,,0.00,WUHU216DAVISVP2,2013-05-14 08:12:00,
2013-05-14 04:17:00,43.1,31.8,30.02,SSW,208,1.0,3.0,64,0.00,,,0.00,WUHU216DAVISVP2,2013-05-14 08:17:00,
2013-05-14 04:22:00,43.1,31.8,30.02,SSW,207,1.0,4.0,64,0.00,,,0.00,WUHU216DAVISVP2,2013-05-14 08:22:00,
2013-05-14 04:27:00,43.1,31.4,30.02,SSE,165,1.0,4.0,63,0.00,,,0.00,WUHU216DAVISVP2,2013-05-14 08:27:00,
2013-05-14 04:32:00,43.2,31.1,30.02,SSW,208,0.0,4.0,62,0.00,,,0.00,WUHU216DAVISVP2,2013-05-14 08:32:00,
2013-05-14 04:37:00,43.2,31.4,30.02,SW,225,0.0,4.0,63,0.00,,,0.00,WUHU216DAVISVP2,2013-05-14 08:37:00,
2013-05-14 04:42:00,43.3,31.2,30.01,SSW,198,1.0,3.0,62,0.00,,,0.00,WUHU216DAVISVP2,2013-05-14 08:42:00,
2013-05-14 04:47:00,43.3,31.6,30.01,SSW,205,1.0,3.0,63,0.00,,,0.00,WUHU216DAVISVP2,2013-05-14 08:47:00,
2013-05-14 04:52:00,43.3,31.6,30.01,SW,235,1.0,2.0,63,0.00,,,0.00,WUHU216DAVISVP2,2013-05-14 08:52:00,
2013-05-14 04:57:00,43.3,31.1,30.01,South,186,2.0,2.0,62,0.00,,,0.00,WUHU216DAVISVP2,2013-05-14 08:57:00,
2013-05-14 05:02:00,43.2,31.1,30.01,SW,219,1.0,2.0,62,0.00,,,0.00,WUHU216DAVISVP2,2013-05-14 09:02:00,
2013-05-14 05:07:00,43.2,31.4,30.01,SW,219,0.0,2.0,63,0.00,,,0.00,WUHU216DAVISVP2,2013-05-14 09:07:00,
2013-05-14 05:12:00,43.2,31.9,30.01,WSW,249,1.0,2.0,64,0.00,,,0.00,WUHU216DAVISVP2,2013-05-14 09:12:00,
2013-05-14 05:17:00,43.2,31.5,30.00,SSE,160,0.0,1.0,63,0.00,,,0.00,WUHU216DAVISVP2,2013-05-14 09:17:00,
2013-05-14 05:22:00,43.2,31.5,30.00,SSE,148,0.0,1.0,63,0.00,,,0.00,WUHU216DAVISVP2,2013-05-14 09:22:00,
2013-05-14 05:27:00,43.2,31.9,30.00,South,191,1.0,1.0,64,0.00,,,0.00,WUHU216DAVISVP2,2013-05-14 09:27:00,
2013-05-14 05:32:00,43.2,31.9,30.00,ESE,122,0.0,1.0,64,0.00,,,0.00,WUHU216DAVISVP2,2013-05-14 09:32:00,
2013-05-14 05:37:00,43.2,32.3,29.99,South,181,1.0,1.0,65,0.00,,,0.00,WUHU216DAVISVP2,2013-05-14 09:37:00,
2013-05-14 05:42:00,43.2,31.9,29.99,South,191,0.0,2.0,64,0.00,,,0.00,WUHU216DAVISVP2,2013-05-14 09:42:00,
2013-05-14 05:47:00,43.3,32.0,29.99,ESE,118,2.0,3.0,64,0.00,,,0.00,WUHU216DAVISVP2,2013-05-14 09:47:00,
2013-05-14 05:52:00,43.3,31.6,29.99,SW,224,1.0,3.0,63,0.00,,,0.00,WUHU216DAVISVP2,2013-05-14 09:52:00,
2013-05-14 05:57:00,43.3,31.6,30.00,SW,221,0.0,3.0,63,0.00,,,0.00,WUHU216DAVISVP2,2013-05-14 09:57:00,
2013-05-14 06:02:00,43.4,32.1,29.99,SSE,163,0.0,2.0,64,0.00,,,0.00,WUHU216DAVISVP2,2013-05-14 10:02:00,
2013-05-14 06:07:00,43.3,32.4,29.99,SSE,163,0.0,2.0,65,0.00,,,0.00,WUHU216DAVISVP2,2013-05-14 10:07:00,
2013-05-14 06:12:00,43.3,32.3,30.00,SSE,160,1.0,2.0,65,0.00,,,0.00,WUHU216DAVISVP2,2013-05-14 10:12:00,
2013-05-14 06:17:00,43.3,32.8,30.00,ESE,118,0.0,2.0,66,0.00,,,0.00,WUHU216DAVISVP2,2013-05-14 10:17:00,
2013-05-14 06:22:00,43.4,32.5,29.99,SE,138,1.0,2.0,65,0.00,,,0.00,WUHU216DAVISVP2,2013-05-14 10:22:00,
2013-05-14 06:27:00,43.5,32.6,29.99,SE,130,0.0,2.0,65,0.00,,,0.00,WUHU216DAVISVP2,2013-05-14 10:27:00,
2013-05-14 06:32:00,43.5,32.6,29.99,SE,135,1.0,2.0,65,0.00,,,0.00,WUHU216DAVISVP2,2013-05-14 10:32:00,
2013-05-14 06:37:00,43.5,33.0,29.98,SSE,150,0.0,2.0,66,0.00,,,0.00,WUHU216DAVISVP2,2013-05-14 10:37:00,
2013-05-14 06:42:00,43.5,33.4,29.98,SE,142,0.0,2.0,67,0.00,,,0.00,WUHU216DAVISVP2,2013-05-14 10:42:00,
2013-05-14 06:47:00,43.5,33.4,29.98,South,170,2.0,2.0,67,0.00,,,0.00,WUHU216DAVISVP2,2013-05-14 10:47:00,
2013-05-14 06:52:00,43.4,33.3,29.99,SSE,158,1.0,2.0,67,0.00,,,0.00,WUHU216DAVISVP2,2013-05-14 10:52:00,
2013-05-14 06:57:00,43.4,33.3,29.98,South,169,2.0,2.0,67,0.00,,,0.00,WUHU216DAVISVP2,2013-05-14 10:57:00,
2013-05-14 07:02:00,43.4,33.3,29.97,ESE,117,1.0,3.0,67,0.00,,,0.00,WUHU216DAVISVP2,2013-05-14 11:02:00,
2013-05-14 07:07:00,43.5,33.0,29.96,SSE,150,1.0,3.0,66,0.00,,,0.00,WUHU216DAVISVP2,2013-05-14 11:07:00,
2013-05-14 07:12:00,43.6,33.1,29.96,SE,125,2.0,4.0,66,0.00,,,0.00,WUHU216DAVISVP2,2013-05-14 11:12:00,
2013-05-14 07:17:00,43.7,33.6,29.97,SSE,153,2.0,4.0,67,0.00,,,0.00,WUHU216DAVISVP2,2013-05-14 11:17:00,
2013-05-14 07:22:00,43.8,33.3,29.97,ESE,123,1.0,4.0,66,0.00,,,0.00,WUHU216DAVISVP2,2013-05-14 11:22:00,
2013-05-14 07:27:00,43.9,33.7,29.97,ESE,120,1.0,4.0,67,0.00,,,0.00,WUHU216DAVISVP2,2013-05-14 11:27:00,
2013-05-14 07:32:00,44.1,33.2,29.96,SE,127,0.0,4.0,65,0.00,,,0.00,WUHU216DAVISVP2,2013-05-14 11:32:00,
2013-05-14 07:37:00,44.3,33.4,29.95,SE,134,0.0,4.0,65,0.00,,,0.00,WUHU216DAVISVP2,2013-05-14 11:37:00,
2013-05-14 07:42:00,44.5,33.9,29.95,SE,143,1.0,3.0,66,0.00,,,0.00,WUHU216DAVISVP2,2013-05-14 11:42:00,
2013-05-14 07:47:00,44.7,33.7,29.95,ESE,111,0.0,4.0,65,0.00,,,0.00,WUHU216DAVISVP2,2013-05-14 11:47:00,
2013-05-14 07:52:00,44.9,33.8,29.94,South,173,0.0,4.0,65,0.00,,,0.00,WUHU216DAVISVP2,2013-05-14 11:52:00,
2013-05-14 07:57:00,45.0,33.6,29.93,SW,236,2.0,4.0,64,0.00,,,0.00,WUHU216DAVISVP2,2013-05-14 11:57:00,
2013-05-14 08:02:00,45.3,33.5,29.94,SE,127,3.0,5.0,63,0.00,,,0.00,WUHU216DAVISVP2,2013-05-14 12:02:00,
2013-05-14 08:07:00,45.6,33.8,29.94,SE,131,1.0,5.0,63,0.00,,,0.00,WUHU216DAVISVP2,2013-05-14 12:07:00,
2013-05-14 08:12:00,45.8,33.6,29.94,SE,130,2.0,4.0,62,0.00,,,0.00,WUHU216DAVISVP2,2013-05-14 12:12:00,
2013-05-14 08:17:00,46.1,33.9,29.94,ESE,117,1.0,4.0,62,0.00,,,0.00,WUHU216DAVISVP2,2013-05-14 12:17:00,
2013-05-14 08:22:00,46.4,34.1,29.95,SE,124,4.0,4.0,62,0.00,,,0.00,WUHU216DAVISVP2,2013-05-14 12:22:00,
2013-05-14 08:27:00,46.7,34.9,29.95,SE,130,1.0,4.0,63,0.00,,,0.00,WUHU216DAVISVP2,2013-05-14 12:27:00,
2013-05-14 08:32:00,46.9,34.2,29.95,South,173,1.0,4.0,61,0.00,,,0.00,WUHU216DAVISVP2,2013-05-14 12:32:00,
2013-05-14 08:37:00,47.4,34.7,29.94,ESE,120,2.0,4.0,61,0.00,,,0.00,WUHU216DAVISVP2,2013-05-14 12:37:00,
2013-05-14 08:42:00,48.3,35.6,29.94,SSE,150,0.0,4.0,61,0.00,,,0.00,WUHU216DAVISVP2,2013-05-14 12:42:00,
2013-05-14 08:47:00,49.1,35.5,29.94,ESE,116,2.0,4.0,59,0.00,,,0.00,WUHU216DAVISVP2,2013-05-14 12:47:00,
2013-05-14 08:52:00,49.7,35.6,29.93,ESE,116,2.0,6.0,58,0.00,,,0.00,WUHU216DAVISVP2,2013-05-14 12:52:00,
2013-05-14 08:57:00,50.1,35.5,29.93,SE,145,1.0,9.0,57,0.00,,,0.00,WUHU216DAVISVP2,2013-05-14 12:57:00,
2013-05-14 09:02:00,50.6,35.5,29.93,SSW,194,3.0,9.0,56,0.00,,,0.00,WUHU216DAVISVP2,2013-05-14 13:02:00,
2013-05-14 09:07:00,50.7,36.1,29.93,SE,136,2.0,9.0,57,0.00,,,0.00,WUHU216DAVISVP2,2013-05-14 13:07:00,
2013-05-14 09:12:00,50.8,36.2,29.93,SE,141,1.0,9.0,57,0.00,,,0.00,WUHU216DAVISVP2,2013-05-14 13:12:00,
2013-05-14 09:17:00,51.0,36.4,29.93,ESE,121,3.0,8.0,57,0.00,,,0.00,WUHU216DAVISVP2,2013-05-14 13:17:00,
2013-05-14 09:22:00,51.3,36.6,29.92,ESE,120,1.0,8.0,57,0.00,,,0.00,WUHU216DAVISVP2,2013-05-14 13:22:00,
2013-05-14 09:27:00,51.6,36.5,29.92,SSE,155,0.0,6.0,56,0.00,,,0.00,WUHU216DAVISVP2,2013-05-14 13:27:00,
2013-05-14 09:32:00,52.0,36.8,29.92,SE,125,2.0,6.0,56,0.00,,,0.00,WUHU216DAVISVP2,2013-05-14 13:32:00,
2013-05-14 09:37:00,52.2,37.9,29.92,South,179,2.0,6.0,58,0.00,,,0.00,WUHU216DAVISVP2,2013-05-14 13:37:00,
2013-05-14 09:42:00,52.5,37.3,29.91,WSW,240,4.0,5.0,56,0.00,,,0.00,WUHU216DAVISVP2,2013-05-14 13:42:00,
2013-05-14 09:47:00,52.8,37.6,29.91,South,177,3.0,5.0,56,0.00,,,0.00,WUHU216DAVISVP2,2013-05-14 13:47:00,
2013-05-14 09:52:00,53.2,37.5,29.90,SSW,193,3.0,5.0,55,0.00,,,0.00,WUHU216DAVISVP2,2013-05-14 13:52:00,
2013-05-14 09:57:00,53.6,37.4,29.90,SSE,166,4.0,7.0,54,0.00,,,0.00,WUHU216DAVISVP2,2013-05-14 13:57:00,
2013-05-14 10:02:00,53.8,37.6,29.90,SSE,156,3.0,7.0,54,0.00,,,0.00,WUHU216DAVISVP2,2013-05-14 14:02:00,
2013-05-14 10:07:00,54.0,37.3,29.90,South,173,2.0,7.0,53,0.00,,,0.00,WUHU216DAVISVP2,2013-05-14 14:07:00,
2013-05-14 10:12:00,54.1,37.4,29.89,SSE,155,3.0,9.0,53,0.00,,,0.00,WUHU216DAVISVP2,2013-05-14 14:12:00,
2013-05-14 10:17:00,54.2,37.5,29.88,SE,143,2.0,9.0,53,0.00,,,0.00,WUHU216DAVISVP2,2013-05-14 14:17:00,
2013-05-14 10:22:00,54.6,37.3,29.88,SE,138,1.0,9.0,52,0.00,,,0.00,WUHU216DAVISVP2,2013-05-14 14:22:00,
2013-05-14 10:27:00,55.2,37.4,29.88,ESE,110,3.0,7.0,51,0.00,,,0.00,WUHU216DAVISVP2,2013-05-14 14:27:00,
2013-05-14 10:32:00,55.8,36.9,29.87,SSW,205,4.0,9.0,49,0.00,,,0.00,WUHU216DAVISVP2,2013-05-14 14:32:00,
2013-05-14 10:37:00,56.4,37.4,29.87,SSE,148,2.0,9.0,49,0.00,,,0.00,WUHU216DAVISVP2,2013-05-14 14:37:00,
2013-05-14 10:42:00,57.2,38.2,29.87,SW,221,8.0,11.0,49,0.00,,,0.00,WUHU216DAVISVP2,2013-05-14 14:42:00,
2013-05-14 10:47:00,57.3,38.3,29.86,ESE,112,5.0,11.0,49,0.00,,,0.00,WUHU216DAVISVP2,2013-05-14 14:47:00,
2013-05-14 10:52:00,57.3,36.6,29.86,South,183,4.0,11.0,46,0.00,,,0.00,WUHU216DAVISVP2,2013-05-14 14:52:00,
2013-05-14 10:57:00,57.4,37.8,29.86,SSE,152,2.0,11.0,48,0.00,,,0.00,WUHU216DAVISVP2,2013-05-14 14:57:00,
2013-05-14 11:02:00,57.3,37.2,29.86,ESE,120,1.0,9.0,47,0.00,,,0.00,WUHU216DAVISVP2,2013-05-14 15:02:00,
2013-05-14 11:07:00,57.4,37.3,29.86,SE,145,2.0,9.0,47,0.00,,,0.00,WUHU216DAVISVP2,2013-05-14 15:07:00,
2013-05-14 11:12:00,57.2,37.1,29.86,SE,140,5.0,12.0,47,0.00,,,0.00,WUHU216DAVISVP2,2013-05-14 15:12:00,
2013-05-14 11:17:00,57.1,37.0,29.86,SSW,212,6.0,12.0,47,0.00,,,0.00,WUHU216DAVISVP2,2013-05-14 15:17:00,
2013-05-14 11:22:00,57.4,38.4,29.85,ESE,122,4.0,11.0,49,0.00,,,0.00,WUHU216DAVISVP2,2013-05-14 15:22:00,
2013-05-14 11:27:00,57.5,36.8,29.85,SSE,149,2.0,11.0,46,0.00,,,0.00,WUHU216DAVISVP2,2013-05-14 15:27:00,
2013-05-14 11:32:00,57.7,37.0,29.84,ESE,119,1.0,8.0,46,0.00,,,0.00,WUHU216DAVISVP2,2013-05-14 15:32:00,
2013-05-14 11:37:00,58.2,37.4,29.84,SSE,163,3.0,8.0,46,0.00,,,0.00,WUHU216DAVISVP2,2013-05-14 15:37:00,
2013-05-14 11:42:00,58.4,38.2,29.84,ESE,122,2.0,7.0,47,0.00,,,0.00,WUHU216DAVISVP2,2013-05-14 15:42:00,
2013-05-14 11:47:00,58.9,38.7,29.84,SE,127,6.0,6.0,47,0.00,,,0.00,WUHU216DAVISVP2,2013-05-14 15:47:00,
2013-05-14 11:52:00,59.1,39.4,29.83,SE,141,3.0,6.0,48,0.00,,,0.00,WUHU216DAVISVP2,2013-05-14 15:52:00,
2013-05-14 11:57:00,59.4,38.5,29.83,SE,136,1.0,6.0,46,0.00,,,0.00,WUHU216DAVISVP2,2013-05-14 15:57:00,
2013-05-14 12:02:00,59.8,38.9,29.83,ESE,119,3.0,9.0,46,0.00,,,0.00,WUHU216DAVISVP2,2013-05-14 16:02:00,
2013-05-14 12:07:00,59.9,37.8,29.82,SSE,163,5.0,9.0,44,0.00,,,0.00,WUHU216DAVISVP2,2013-05-14 16:07:00,
2013-05-14 12:12:00,59.9,39.0,29.82,ESE,115,3.0,9.0,46,0.00,,,0.00,WUHU216DAVISVP2,2013-05-14 16:12:00,
2013-05-14 12:17:00,60.3,38.8,29.81,SE,137,1.0,9.0,45,0.00,,,0.00,WUHU216DAVISVP2,2013-05-14 16:17:00,
2013-05-14 12:22:00,60.9,39.3,29.81,East,93,5.0,9.0,45,0.00,,,0.00,WUHU216DAVISVP2,2013-05-14 16:22:00,
2013-05-14 12:27:00,61.2,39.6,29.81,SSE,153,2.0,9.0,45,0.00,,,0.00,WUHU216DAVISVP2,2013-05-14 16:27:00,
2013-05-14 12:32:00,61.7,40.7,29.82,SSE,151,4.0,9.0,46,0.00,,,0.00,WUHU216DAVISVP2,2013-05-14 16:32:00,
2013-05-14 12:37:00,62.0,40.3,29.81,South,183,2.0,9.0,45,0.00,,,0.00,WUHU216DAVISVP2,2013-05-14 16:37:00,
2013-05-14 12:42:00,62.6,40.3,29.82,SSE,155,3.0,8.0,44,0.00,,,0.00,WUHU216DAVISVP2,2013-05-14 16:42:00,
2013-05-14 12:47:00,62.7,40.4,29.82,ESE,112,3.0,9.0,44,0.00,,,0.00,WUHU216DAVISVP2,2013-05-14 16:47:00,
2013-05-14 12:52:00,63.1,40.7,29.81,ESE,114,1.0,9.0,44,0.00,,,0.00,WUHU216DAVISVP2,2013-05-14 16:52:00,
2013-05-14 12:57:00,63.5,40.5,29.81,SE,133,4.0,9.0,43,0.00,,,0.00,WUHU216DAVISVP2,2013-05-14 16:57:00,
2013-05-14 13:02:00,63.7,40.1,29.81,SSE,165,0.0,9.0,42,0.00,,,0.00,WUHU216DAVISVP2,2013-05-14 17:02:00,
2013-05-14 13:07:00,64.2,41.1,29.81,ESE,113,2.0,7.0,43,0.00,,,0.00,WUHU216DAVISVP2,2013-05-14 17:07:00,
2013-05-14 13:12:00,64.6,41.5,29.81,SSW,200,0.0,9.0,43,0.00,,,0.00,WUHU216DAVISVP2,2013-05-14 17:12:00,
2013-05-14 13:17:00,65.9,42.7,29.81,SE,127,4.0,9.0,43,0.00,,,0.00,WUHU216DAVISVP2,2013-05-14 17:17:00,
2013-05-14 13:22:00,66.6,42.7,29.81,SW,226,4.0,8.0,42,0.00,,,0.00,WUHU216DAVISVP2,2013-05-14 17:22:00,
2013-05-14 13:27:00,67.5,43.0,29.80,South,188,2.0,8.0,41,0.00,,,0.00,WUHU216DAVISVP2,2013-05-14 17:27:00,
2013-05-14 13:32:00,68.1,43.4,29.80,ESE,110,2.0,8.0,41,0.00,,,0.00,WUHU216DAVISVP2,2013-05-14 17:32:00,
2013-05-14 13:37:00,68.6,43.8,29.79,SE,145,3.0,8.0,41,0.00,,,0.00,WUHU216DAVISVP2,2013-05-14 17:37:00,
2013-05-14 13:42:00,69.2,43.2,29.79,SW,215,10.0,10.0,39,0.00,,,0.00,WUHU216DAVISVP2,2013-05-14 17:42:00,
2013-05-14 13:47:00,69.3,42.4,29.79,SSW,210,2.0,10.0,38,0.00,,,0.00,WUHU216DAVISVP2,2013-05-14 17:47:00,
2013-05-14 13:52:00,69.0,41.5,29.78,ESE,122,2.0,10.0,37,0.00,,,0.00,WUHU216DAVISVP2,2013-05-14 17:52:00,
2013-05-14 13:57:00,69.3,43.1,29.78,South,184,3.0,10.0,39,0.00,,,0.00,WUHU216DAVISVP2,2013-05-14 17:57:00,
2013-05-14 14:02:00,69.4,43.2,29.78,SE,131,2.0,10.0,39,0.00,,,0.00,WUHU216DAVISVP2,2013-05-14 18:02:00,
2013-05-14 14:07:00,69.6,43.4,29.78,SSE,163,2.0,10.0,39,0.00,,,0.00,WUHU216DAVISVP2,2013-05-14 18:07:00,
2013-05-14 14:12:00,70.1,43.2,29.77,ESE,102,3.0,10.0,38,0.00,,,0.00,WUHU216DAVISVP2,2013-05-14 18:12:00,
2013-05-14 14:17:00,69.5,44.0,29.77,East,89,5.0,11.0,40,0.00,,,0.00,WUHU216DAVISVP2,2013-05-14 18:17:00,
2013-05-14 14:22:00,69.8,44.4,29.77,SE,146,4.0,11.0,40,0.00,,,0.00,WUHU216DAVISVP2,2013-05-14 18:22:00,
2013-05-14 14:27:00,70.5,44.3,29.76,SSE,167,10.0,15.0,39,0.00,,,0.00,WUHU216DAVISVP2,2013-05-14 18:27:00,
2013-05-14 14:32:00,70.7,43.7,29.76,WSW,249,5.0,16.0,38,0.00,,,0.00,WUHU216DAVISVP2,2013-05-14 18:32:00,
2013-05-14 14:37:00,70.2,44.1,29.76,WSW,253,5.0,16.0,39,0.00,,,0.00,WUHU216DAVISVP2,2013-05-14 18:37:00,
2013-05-14 14:42:00,69.5,44.0,29.76,ESE,114,3.0,16.0,40,0.00,,,0.00,WUHU216DAVISVP2,2013-05-14 18:42:00,
2013-05-14 14:47:00,68.7,45.2,29.76,SE,134,0.0,15.0,43,0.00,,,0.00,WUHU216DAVISVP2,2013-05-14 18:47:00,
2013-05-14 14:52:00,68.5,44.4,29.76,ESE,113,0.0,15.0,42,0.00,,,0.00,WUHU216DAVISVP2,2013-05-14 18:52:00,
2013-05-14 14:57:00,68.5,45.0,29.75,ESE,121,1.0,9.0,43,0.00,,,0.00,WUHU216DAVISVP2,2013-05-14 18:57:00,
2013-05-14 15:02:00,69.0,46.7,29.75,SE,124,1.0,5.0,45,0.00,,,0.00,WUHU216DAVISVP2,2013-05-14 19:02:00,
2013-05-14 15:07:00,69.5,46.6,29.75,ESE,119,5.0,5.0,44,0.00,,,0.00,WUHU216DAVISVP2,2013-05-14 19:07:00,
2013-05-14 15:12:00,69.4,45.9,29.75,South,181,0.0,7.0,43,0.00,,,0.00,WUHU216DAVISVP2,2013-05-14 19:12:00,
2013-05-14 15:17:00,69.4,46.5,29.75,South,176,1.0,7.0,44,0.00,,,0.00,WUHU216DAVISVP2,2013-05-14 19:17:00,
2013-05-14 15:22:00,70.0,48.3,29.74,SSW,198,0.0,6.0,46,0.00,,,0.00,WUHU216DAVISVP2,2013-05-14 19:22:00,
2013-05-14 15:27:00,70.3,47.3,29.74,ESE,117,1.0,4.0,44,0.00,,,0.00,WUHU216DAVISVP2,2013-05-14 19:27:00,
2013-05-14 15:32:00,70.4,46.8,29.74,SSW,204,1.0,5.0,43,0.00,,,0.00,WUHU216DAVISVP2,2013-05-14 19:32:00,
2013-05-14 15:37:00,70.9,46.6,29.74,SSE,159,3.0,6.0,42,0.00,,,0.00,WUHU216DAVISVP2,2013-05-14 19:37:00,
2013-05-14 15:42:00,71.3,46.3,29.74,South,180,2.0,6.0,41,0.00,,,0.00,WUHU216DAVISVP2,2013-05-14 19:42:00,
2013-05-14 15:47:00,72.0,46.9,29.74,South,176,2.0,11.0,41,0.00,,,0.00,WUHU216DAVISVP2,2013-05-14 19:47:00,
2013-05-14 15:52:00,72.7,46.2,29.73,SE,141,4.0,11.0,39,0.00,,,0.00,WUHU216DAVISVP2,2013-05-14 19:52:00,
2013-05-14 15:57:00,73.5,48.3,29.73,SE,126,3.0,11.0,41,0.00,,,0.00,WUHU216DAVISVP2,2013-05-14 19:57:00,
2013-05-14 16:02:00,73.4,46.8,29.73,SSE,165,7.0,12.0,39,0.00,,,0.00,WUHU216DAVISVP2,2013-05-14 20:02:00,
2013-05-14 16:07:00,73.4,47.5,29.73,ESE,122,2.0,12.0,40,0.00,,,0.00,WUHU216DAVISVP2,2013-05-14 20:07:00,
2013-05-14 16:12:00,73.8,47.9,29.73,ESE,107,3.0,12.0,40,0.00,,,0.00,WUHU216DAVISVP2,2013-05-14 20:12:00,
2013-05-14 16:17:00,74.0,46.6,29.73,South,187,2.0,12.0,38,0.00,,,0.00,WUHU216DAVISVP2,2013-05-14 20:17:00,
2013-05-14 16:22:00,74.2,47.5,29.73,South,184,7.0,10.0,39,0.00,,,0.00,WUHU216DAVISVP2,2013-05-14 20:22:00,
2013-05-14 16:27:00,74.5,47.8,29.73,SSW,212,6.0,11.0,39,0.00,,,0.00,WUHU216DAVISVP2,2013-05-14 20:27:00,
2013-05-14 16:32:00,74.2,48.2,29.72,SE,126,2.0,13.0,40,0.00,,,0.00,WUHU216DAVISVP2,2013-05-14 20:32:00,
2013-05-14 16:37:00,74.1,47.4,29.72,South,191,3.0,13.0,39,0.00,,,0.00,WUHU216DAVISVP2,2013-05-14 20:37:00,
2013-05-14 16:42:00,74.4,47.7,29.72,SSE,159,2.0,13.0,39,0.00,,,0.00,WUHU216DAVISVP2,2013-05-14 20:42:00,
2013-05-14 16:47:00,75.2,50.5,29.72,SSE,148,0.0,13.0,42,0.00,,,0.00,WUHU216DAVISVP2,2013-05-14 20:47:00,
2013-05-14 16:52:00,76.2,49.4,29.71,SE,136,2.0,7.0,39,0.00,,,0.00,WUHU216DAVISVP2,2013-05-14 20:52:00,
2013-05-14 16:57:00,76.0,49.2,29.71,SE,142,3.0,8.0,39,0.00,,,0.00,WUHU216DAVISVP2,2013-05-14 20:57:00,
2013-05-14 17:02:00,75.3,48.6,29.72,SE,126,2.0,11.0,39,0.00,,,0.00,WUHU216DAVISVP2,2013-05-14 21:02:00,
2013-05-14 17:07:00,74.8,48.9,29.71,SE,141,1.0,11.0,40,0.00,,,0.00,WUHU216DAVISVP2,2013-05-14 21:07:00,
2013-05-14 17:12:00,74.4,49.1,29.71,WSW,239,1.0,11.0,41,0.00,,,0.00,WUHU216DAVISVP2,2013-05-14 21:12:00,
2013-05-14 17:17:00,74.5,49.2,29.71,South,184,3.0,11.0,41,0.00,,,0.00,WUHU216DAVISVP2,2013-05-14 21:17:00,
2013-05-14 17:22:00,74.4,49.7,29.71,WSW,245,1.0,9.0,42,0.00,,,0.00,WUHU216DAVISVP2,2013-05-14 21:22:00,
2013-05-14 17:27:00,74.4,49.1,29.71,West,277,3.0,7.0,41,0.00,,,0.00,WUHU216DAVISVP2,2013-05-14 21:27:00,
2013-05-14 17:32:00,74.3,49.0,29.71,SSW,212,1.0,6.0,41,0.00,,,0.00,WUHU216DAVISVP2,2013-05-14 21:32:00,
2013-05-14 17:37:00,74.4,49.1,29.71,SSE,160,2.0,6.0,41,0.00,,,0.00,WUHU216DAVISVP2,2013-05-14 21:37:00,
2013-05-14 17:42:00,74.4,49.7,29.71,SSW,204,3.0,5.0,42,0.00,,,0.00,WUHU216DAVISVP2,2013-05-14 21:42:00,
2013-05-14 17:47:00,74.5,49.8,29.71,South,191,1.0,5.0,42,0.00,,,0.00,WUHU216DAVISVP2,2013-05-14 21:47:00,
2013-05-14 17:52:00,74.5,49.8,29.70,SE,136,0.0,4.0,42,0.00,,,0.00,WUHU216DAVISVP2,2013-05-14 21:52:00,
2013-05-14 17:57:00,74.4,51.0,29.71,ESE,111,1.0,4.0,44,0.00,,,0.00,WUHU216DAVISVP2,2013-05-14 21:57:00,
2013-05-14 18:02:00,73.7,50.4,29.71,SSE,159,0.0,4.0,44,0.00,,,0.00,WUHU216DAVISVP2,2013-05-14 22:02:00,
2013-05-14 18:07:00,72.7,49.5,29.71,SE,125,1.0,3.0,44,0.00,,,0.00,WUHU216DAVISVP2,2013-05-14 22:07:00,
2013-05-14 18:12:00,72.1,48.9,29.71,SE,131,1.0,3.0,44,0.00,,,0.00,WUHU216DAVISVP2,2013-05-14 22:12:00,
2013-05-14 18:17:00,72.0,49.5,29.70,SE,129,0.0,2.0,45,0.00,,,0.00,WUHU216DAVISVP2,2013-05-14 22:17:00,
2013-05-14 18:22:00,71.9,49.4,29.70,SSE,148,0.0,2.0,45,0.00,,,0.00,WUHU216DAVISVP2,2013-05-14 22:22:00,
2013-05-14 18:27:00,71.9,50.0,29.70,SSE,148,1.0,2.0,46,0.00,,,0.00,WUHU216DAVISVP2,2013-05-14 22:27:00,
2013-05-14 18:32:00,71.9,49.4,29.69,SSW,201,1.0,2.0,45,0.00,,,0.00,WUHU216DAVISVP2,2013-05-14 22:32:00,
2013-05-14 18:37:00,72.0,49.5,29.68,ESE,120,2.0,3.0,45,0.00,,,0.00,WUHU216DAVISVP2,2013-05-14 22:37:00,
2013-05-14 18:42:00,72.3,50.4,29.68,SE,133,0.0,3.0,46,0.00,,,0.00,WUHU216DAVISVP2,2013-05-14 22:42:00,
2013-05-14 18:47:00,72.2,49.0,29.68,ENE,65,2.0,3.0,44,0.00,,,0.00,WUHU216DAVISVP2,2013-05-14 22:47:00,
2013-05-14 18:52:00,72.0,48.9,29.69,East,82,2.0,3.0,44,0.00,,,0.00,WUHU216DAVISVP2,2013-05-14 22:52:00,
2013-05-14 18:57:00,71.9,49.4,29.69,NE,55,0.0,3.0,45,0.00,,,0.00,WUHU216DAVISVP2,2013-05-14 22:57:00,
2013-05-14 19:02:00,71.6,49.1,29.69,East,89,0.0,3.0,45,0.00,,,0.00,WUHU216DAVISVP2,2013-05-14 23:02:00,
2013-05-14 19:07:00,71.3,49.4,29.69,East,93,2.0,3.0,46,0.00,,,0.00,WUHU216DAVISVP2,2013-05-14 23:07:00,
2013-05-14 19:12:00,71.1,48.7,29.69,ENE,76,2.0,3.0,45,0.00,,,0.00,WUHU216DAVISVP2,2013-05-14 23:12:00,
2013-05-14 19:17:00,70.9,49.1,29.69,East,79,0.0,3.0,46,0.00,,,0.00,WUHU216DAVISVP2,2013-05-14 23:17:00,
2013-05-14 19:22:00,70.8,48.4,29.69,NE,56,1.0,3.0,45,0.00,,,0.00,WUHU216DAVISVP2,2013-05-14 23:22:00,
2013-05-14 19:27:00,70.7,48.9,29.69,ENE,77,2.0,3.0,46,0.00,,,0.00,WUHU216DAVISVP2,2013-05-14 23:27:00,
2013-05-14 19:32:00,69.2,48.1,29.69,ESE,112,0.0,8.0,47,0.00,,,0.00,WUHU216DAVISVP2,2013-05-14 23:32:00,
2013-05-14 19:37:00,67.8,47.4,29.69,NE,47,2.0,8.0,48,0.00,,,0.00,WUHU216DAVISVP2,2013-05-14 23:37:00,
2013-05-14 19:42:00,66.5,47.3,29.69,NE,53,3.0,7.0,50,0.00,,,0.00,WUHU216DAVISVP2,2013-05-14 23:42:00,
2013-05-14 19:47:00,65.5,47.4,29.69,NE,47,1.0,7.0,52,0.00,,,0.00,WUHU216DAVISVP2,2013-05-14 23:47:00,
2013-05-14 19:52:00,65.0,47.4,29.69,NE,49,4.0,6.0,53,0.00,,,0.00,WUHU216DAVISVP2,2013-05-14 23:52:00,
2013-05-14 19:57:00,64.3,46.8,29.69,NE,45,2.0,5.0,53,0.00,,,0.00,WUHU216DAVISVP2,2013-05-14 23:57:00,
2013-05-14 20:02:00,63.7,46.7,29.69,East,79,2.0,4.0,54,0.00,,,0.00,WUHU216DAVISVP2,2013-05-15 00:02:00,
2013-05-14 20:07:00,63.3,47.0,29.69,ENE,77,1.0,4.0,55,0.00,,,0.00,WUHU216DAVISVP2,2013-05-15 00:07:00,
2013-05-14 20:12:00,62.8,46.5,29.69,NE,49,3.0,7.0,55,0.00,,,0.00,WUHU216DAVISVP2,2013-05-15 00:12:00,
2013-05-14 20:17:00,62.2,45.9,29.69,ENE,73,2.0,7.0,55,0.00,,,0.00,WUHU216DAVISVP2,2013-05-15 00:17:00,
2013-05-14 20:22:00,61.7,46.4,29.69,NE,49,1.0,6.0,57,0.00,,,0.00,WUHU216DAVISVP2,2013-05-15 00:22:00,
2013-05-14 20:27:00,61.2,46.0,29.69,East,101,2.0,6.0,57,0.00,,,0.00,WUHU216DAVISVP2,2013-05-15 00:27:00,
2013-05-14 20:32:00,60.8,46.0,29.69,ENE,57,2.0,4.0,58,0.00,,,0.00,WUHU216DAVISVP2,2013-05-15 00:32:00,
2013-05-14 20:37:00,60.4,46.0,29.69,NE,52,1.0,4.0,59,0.00,,,0.00,WUHU216DAVISVP2,2013-05-15 00:37:00,
2013-05-14 20:42:00,60.0,45.6,29.69,ENE,73,1.0,5.0,59,0.00,,,0.00,WUHU216DAVISVP2,2013-05-15 00:42:00,
2013-05-14 20:48:00,59.5,45.7,29.69,NE,54,2.0,5.0,60,0.00,,,0.00,WUHU216DAVISVP2,2013-05-15 00:48:00,
2013-05-14 20:53:00,59.1,45.4,29.69,East,98,2.0,4.0,60,0.00,,,0.00,WUHU216DAVISVP2,2013-05-15 00:53:00,
2013-05-14 20:58:00,58.7,45.4,29.69,East,89,1.0,4.0,61,0.00,,,0.00,WUHU216DAVISVP2,2013-05-15 00:58:00,
2013-05-14 21:03:00,58.4,45.6,29.69,East,100,0.0,3.0,62,0.00,,,0.00,WUHU216DAVISVP2,2013-05-15 01:03:00,
2013-05-14 21:08:00,58.1,45.3,29.69,East,80,0.0,3.0,62,0.00,,,0.00,WUHU216DAVISVP2,2013-05-15 01:08:00,
2013-05-14 21:13:00,58.0,45.6,29.69,NE,53,1.0,3.0,63,0.00,,,0.00,WUHU216DAVISVP2,2013-05-15 01:13:00,
2013-05-14 21:18:00,57.7,45.3,29.69,NE,50,2.0,2.0,63,0.00,,,0.00,WUHU216DAVISVP2,2013-05-15 01:18:00,
2013-05-14 21:23:00,57.5,45.1,29.69,East,81,0.0,2.0,63,0.00,,,0.00,WUHU216DAVISVP2,2013-05-15 01:23:00,
2013-05-14 21:28:00,57.3,45.4,29.69,ENE,74,1.0,2.0,64,0.00,,,0.00,WUHU216DAVISVP2,2013-05-15 01:28:00,
2013-05-14 21:33:00,57.1,45.2,29.68,East,96,3.0,3.0,64,0.00,,,0.00,WUHU216DAVISVP2,2013-05-15 01:33:00,
2013-05-14 21:38:00,56.8,44.9,29.68,East,82,3.0,3.0,64,0.00,,,0.00,WUHU216DAVISVP2,2013-05-15 01:38:00,
2013-05-14 21:43:00,56.6,45.1,29.67,East,87,1.0,4.0,65,0.00,,,0.00,WUHU216DAVISVP2,2013-05-15 01:43:00,
2013-05-14 21:48:00,56.4,44.9,29.68,East,93,2.0,4.0,65,0.00,,,0.00,WUHU216DAVISVP2,2013-05-15 01:48:00,
2013-05-14 21:53:00,56.2,45.1,29.68,East,89,0.0,3.0,66,0.00,,,0.00,WUHU216DAVISVP2,2013-05-15 01:53:00,
2013-05-14 21:58:00,56.0,45.3,29.67,ENE,78,1.0,3.0,67,0.00,,,0.00,WUHU216DAVISVP2,2013-05-15 01:58:00,
2013-05-14 22:03:00,55.8,45.1,29.67,ESE,117,1.0,2.0,67,0.00,,,0.00,WUHU216DAVISVP2,2013-05-15 02:03:00,
2013-05-14 22:08:00,55.7,45.0,29.66,ENE,72,1.0,3.0,67,0.00,,,0.00,WUHU216DAVISVP2,2013-05-15 02:08:00,
2013-05-14 22:13:00,55.6,44.9,29.66,ESE,108,2.0,3.0,67,0.00,,,0.00,WUHU216DAVISVP2,2013-05-15 02:13:00,
2013-05-14 22:18:00,55.6,44.9,29.66,East,89,0.0,3.0,67,0.00,,,0.00,WUHU216DAVISVP2,2013-05-15 02:18:00,
2013-05-14 22:23:00,55.5,44.8,29.67,East,88,0.0,3.0,67,0.00,,,0.00,WUHU216DAVISVP2,2013-05-15 02:23:00,
2013-05-14 22:28:00,55.6,44.9,29.66,East,85,0.0,3.0,67,0.00,,,0.00,WUHU216DAVISVP2,2013-05-15 02:28:00,
2013-05-14 22:33:00,55.7,45.0,29.67,ESE,103,0.0,3.0,67,0.00,,,0.00,WUHU216DAVISVP2,2013-05-15 02:33:00,
2013-05-14 22:38:00,55.7,45.0,29.68,ESE,113,1.0,3.0,67,0.00,,,0.00,WUHU216DAVISVP2,2013-05-15 02:38:00,
2013-05-14 22:43:00,55.7,45.4,29.69,ESE,113,0.0,3.0,68,0.00,,,0.00,WUHU216DAVISVP2,2013-05-15 02:43:00,
2013-05-14 22:48:00,55.7,45.4,29.69,NE,48,1.0,2.0,68,0.00,,,0.00,WUHU216DAVISVP2,2013-05-15 02:48:00,
2013-05-14 22:53:00,55.7,45.4,29.69,ENE,66,1.0,2.0,68,0.00,,,0.00,WUHU216DAVISVP2,2013-05-15 02:53:00,
2013-05-14 22:58:00,55.7,45.4,29.69,East,79,0.0,2.0,68,0.00,,,0.00,WUHU216DAVISVP2,2013-05-15 02:58:00,
2013-05-14 23:03:00,55.7,45.8,29.69,North,355,1.0,2.0,69,0.00,,,0.00,WUHU216DAVISVP2,2013-05-15 03:03:00,
2013-05-14 23:08:00,55.7,45.8,29.70,North,1,0.0,2.0,69,0.00,,,0.00,WUHU216DAVISVP2,2013-05-15 03:08:00,
2013-05-14 23:13:00,55.6,46.8,29.69,ESE,104,1.0,2.0,72,0.00,,,0.00,WUHU216DAVISVP2,2013-05-15 03:13:00,
2013-05-14 23:18:00,55.4,47.3,29.70,SSW,194,1.0,5.0,74,0.00,,,0.00,WUHU216DAVISVP2,2013-05-15 03:18:00,
2013-05-14 23:23:00,54.6,47.6,29.68,East,90,1.0,5.0,77,0.00,,,0.00,WUHU216DAVISVP2,2013-05-15 03:23:00,
2013-05-14 23:28:00,54.1,47.8,29.68,NNE,25,0.0,5.0,79,0.00,,,0.00,WUHU216DAVISVP2,2013-05-15 03:28:00,
2013-05-14 23:33:00,53.8,47.8,29.68,North,8,1.0,5.0,80,0.00,,,0.00,WUHU216DAVISVP2,2013-05-15 03:33:00,
2013-05-14 23:38:00,53.6,47.6,29.69,North,5,0.0,4.0,80,0.00,,,0.00,WUHU216DAVISVP2,2013-05-15 03:38:00,
2013-05-14 23:43:00,53.5,47.8,29.69,North,10,0.0,2.0,81,0.00,,,0.00,WUHU216DAVISVP2,2013-05-15 03:43:00,
2013-05-14 23:48:00,53.3,48.0,29.68,North,10,0.0,1.0,82,0.00,,,0.00,WUHU216DAVISVP2,2013-05-15 03:48:00,
2013-05-14 23:53:00,53.3,48.6,29.68,East,92,2.0,2.0,84,0.00,,,0.00,WUHU216DAVISVP2,2013-05-15 03:53:00,
2013-05-14 23:58:00,53.4,49.0,29.67,East,93,1.0,3.0,85,0.00,,,0.00,WUHU216DAVISVP2,2013-05-15 03:58:00,